Weather History for KBRO - April, 2013

Change the Weather History Date:

Thursday, April 11, 2013

  Actual Average Record
Temperature  
Mean Temperature 64 °F 74 °F  
Max Temperature 73 °F 83 °F 97 °F (1943)
Min Temperature 54 °F 65 °F 47 °F (1988)
Degree Days  
Heating Degree Days 1 0  
Month to date heating degree days 2 6  
Since 1 July heating degree days 319 552  
Cooling Degree Days 0 9  
Month to date cooling degree days 93 94  
Year to date cooling degree days 480 409  
Growing Degree Days 13 (Base 50)    
Moisture  
Dew Point 54 °F    
Average Humidity 74    
Maximum Humidity 100    
Minimum Humidity 47    
Precipitation  
Precipitation T in 0.05 in 5.00 in (1908)
Month to date precipitation 0.01 0.55  
Year to date precipitation 1.77 4.13  
Sea Level Pressure  
Sea Level Pressure 29.86 in    
Wind  
Wind Speed 11 mph (North)    
Max Wind Speed 22 mph    
Max Gust Speed 29 mph    
Visibility 9 miles    
Events Rain    
T = Trace of Precipitation, MM = Missing Value Source: NWS Daily Summary

Daily Weather History Graph

Daily Weather History Graph

Search for Another Location

Airport or City:

Trip Planner

Search our weather history database for the weather conditions in past years. The results will help you decide how hot, cold, wet, or windy it might be!

Date:

Astronomy

Apr. 11, 2013 Rise Set
Actual Time 7:10 AM CDT 7:51 PM CDT
Civil Twilight 6:46 AM CDT 8:14 PM CDT
Nautical Twilight 6:19 AM CDT 8:42 PM CDT
Astronomical Twilight 5:51 AM CDT 9:10 PM CDT
Moon 7:51 AM CDT (4/11) 9:15 PM CDT (4/11)
Length of Visible Light 13h 27m
Length of Day
12h 41m
New Moon, 2% of the Moon is Illuminated
Apr 11
New Moon
Apr 18
First Quarter
Apr 25
Full
May 2
Last Quarter
May 9
New

Hourly Weather History & Observations

Time (CDT) Temp. Dew Point Humidity Pressure Visibility Wind Dir Wind Speed Gust Speed Precip Events Conditions
12:53 AM 63.0 °F 63.0 °F 100% 29.78 in 7.0 mi North 13.8 mph 20.7 mph N/A   Overcast
1:53 AM 60.1 °F 60.1 °F 100% 29.80 in 4.0 mi NNW 10.4 mph - 0.00 in Rain Light Rain
2:06 AM 60.8 °F 60.8 °F 100% 29.80 in 4.0 mi NNW 11.5 mph 20.7 mph 0.00 in Rain Light Rain
2:53 AM 57.0 °F 57.0 °F 100% 29.80 in 6.0 mi NW 17.3 mph 21.9 mph 0.00 in   Overcast
3:27 AM 57.2 °F 57.2 °F 100% 29.80 in 10.0 mi NNW 16.1 mph 25.3 mph N/A   Overcast
3:53 AM 57.0 °F 57.0 °F 100% 29.81 in 10.0 mi NNW 13.8 mph - N/A   Overcast
4:05 AM 57.2 °F 55.4 °F 94% 29.81 in 10.0 mi NNW 11.5 mph 21.9 mph N/A   Overcast
4:53 AM 57.0 °F 54.0 °F 89% 29.83 in 10.0 mi NNW 16.1 mph 27.6 mph 0.00 in   Overcast
5:53 AM 55.0 °F 51.1 °F 86% 29.85 in 10.0 mi NNW 18.4 mph 27.6 mph 0.00 in Rain Light Rain
6:53 AM 54.0 °F 48.9 °F 83% 29.87 in 10.0 mi North 20.7 mph 26.5 mph 0.00 in   Overcast
7:07 AM 53.6 °F 50.0 °F 88% 29.87 in 10.0 mi NNE 15.0 mph 21.9 mph N/A   Overcast
7:53 AM 57.0 °F 52.0 °F 83% 29.89 in 10.0 mi North 13.8 mph 19.6 mph N/A   Overcast
8:19 AM 57.2 °F 51.8 °F 82% 29.90 in 10.0 mi North 8.1 mph - N/A   Overcast
8:51 AM 57.2 °F 53.6 °F 88% 29.91 in 10.0 mi North 11.5 mph 16.1 mph N/A   Overcast
8:53 AM 57.9 °F 53.1 °F 84% 29.90 in 10.0 mi North 10.4 mph 16.1 mph N/A   Overcast
9:53 AM 60.1 °F 53.1 °F 78% 29.91 in 10.0 mi NNW 10.4 mph 18.4 mph N/A   Mostly Cloudy
10:53 AM 63.0 °F 51.1 °F 65% 29.94 in 10.0 mi NNW 12.7 mph - N/A   Mostly Cloudy
11:53 AM 66.9 °F 52.0 °F 59% 29.94 in 10.0 mi NNE 10.4 mph 20.7 mph N/A   Mostly Cloudy
12:15 PM 68.0 °F 51.8 °F 56% 29.93 in 10.0 mi North 16.1 mph 26.5 mph N/A   Partly Cloudy
12:53 PM 70.0 °F 51.1 °F 51% 29.91 in 10.0 mi North 15.0 mph 21.9 mph N/A   Clear
1:53 PM 72.0 °F 51.1 °F 48% 29.88 in 10.0 mi North 10.4 mph 20.7 mph N/A   Clear
2:53 PM 71.1 °F 50.0 °F 47% 29.86 in 10.0 mi NNE 16.1 mph 23.0 mph N/A   Clear
3:53 PM 71.1 °F 50.0 °F 47% 29.83 in 10.0 mi NE 12.7 mph 21.9 mph N/A   Clear
4:53 PM 69.1 °F 51.1 °F 53% 29.82 in 10.0 mi NE 13.8 mph 21.9 mph N/A   Clear
5:53 PM 66.9 °F 52.0 °F 59% 29.81 in 10.0 mi NE 12.7 mph - N/A   Clear
6:53 PM 64.9 °F 53.1 °F 65% 29.82 in 10.0 mi NE 8.1 mph - N/A   Clear
7:53 PM 62.1 °F 53.1 °F 72% 29.83 in 10.0 mi ENE 6.9 mph - N/A   Clear
8:53 PM 60.1 °F 54.0 °F 80% 29.84 in 10.0 mi East 4.6 mph - N/A   Clear
9:53 PM 59.0 °F 54.0 °F 83% 29.86 in 10.0 mi ESE 3.5 mph - N/A   Clear
10:53 PM 59.0 °F 55.0 °F 87% 29.88 in 10.0 mi Calm Calm - N/A   Clear
11:53 PM 57.9 °F 54.0 °F 87% 29.90 in 10.0 mi Calm Calm - N/A   Clear